Location: Czekanka
(50.4925°N, 19.2643°E)
Time: 13:11:24
(UTC+00:00)

Cosmos 1892 Rocket - Pass Details

Date: 15 June 2024
Orbit: 603 x 629 km, 82.5° (Epoch: 15 July)

Event Time Altitude Azimuth Distance (km) Brightness Sun altitude
Exits shadow 01:37:12 - 183° (S) 2,594 6.3 -6.8°
Reaches altitude 10° 01:38:43 10° 183° (S) 1,979 5.7 -6.7°
Maximum altitude 01:43:05 76° 99° (E) 647 3.8 -6.2°
Drops below altitude 10° 01:47:32 10° 13° (NNE) 2,011 7.3 -5.8°
Sets 01:49:48 0° 12° (NNE) 2,926 8.2 -5.5°
